Destin, FL

10:53 PM CDT on March 27, 2017 (GMT -0500)
Destin-Fort Walton Beach

Weather History for KDTS - March, 2014

Change the Weather History Date:

Wednesday, March 26, 2014

  Actual Average Record
Temperature  
Mean Temperature 52 °F -  
Max Temperature 61 °F 67 °F 78 °F (2012)
Min Temperature 44 °F 53 °F 39 °F (2013)
Degree Days  
Heating Degree Days 13    
Growing Degree Days 2 (Base 50)    
Moisture  
Dew Point 22 °F    
Average Humidity 32    
Maximum Humidity 42    
Minimum Humidity 21    
Precipitation  
Precipitation 0.00 in - - ()
Sea Level Pressure  
Sea Level Pressure 30.29 in    
Wind  
Wind Speed 9 mph (NE)    
Max Wind Speed 14 mph    
Max Gust Speed 18 mph    
Visibility 10 miles    
Events      
Averages and records for this station are not official NWS values.
T = Trace of Precipitation, MM = Missing Value Source: NWS Daily Summary

Daily Weather History Graph

Daily Weather History Graph

Search for Another Location

Airport or City:

Trip Planner

Search our weather history database for the weather conditions in past years. The results will help you decide how hot, cold, wet, or windy it might be!

Date:

Astronomy

Mar. 26, 2014 Rise Set
Actual Time 6:42 AM CDT 7:01 PM CDT
Civil Twilight 6:18 AM CDT 7:25 PM CDT
Nautical Twilight 5:50 AM CDT 7:53 PM CDT
Astronomical Twilight 5:21 AM CDT 8:21 PM CDT
Moon 3:32 AM CDT (3/26) 2:55 PM CDT (3/26)
Length of Visible Light 13h 06m
Length of Day
12h 18m
Waning Crescent, 21% of the Moon is Illuminated
Mar 26
Waning Crescent
Mar 30
New
Apr 7
First Quarter
Apr 15
Full
Apr 22
Last Quarter

Hourly Weather History & Observations

Time (CDT) Temp. Windchill Dew Point Humidity Pressure Visibility Wind Dir Wind Speed Gust Speed Precip Events Conditions
12:53 AM 48.9 °F - 24.1 °F 38% 30.26 in 10.0 mi North 13.8 mph - N/A   Clear
1:53 AM 48.0 °F - 23.0 °F 37% 30.25 in 10.0 mi North 11.5 mph - N/A   Clear
2:53 AM 46.9 °F - 24.1 °F 41% 30.27 in 10.0 mi North 11.5 mph - N/A   Clear
3:53 AM 46.0 °F 40.2 °F 21.9 °F 39% 30.27 in 10.0 mi North 12.7 mph 18.4 mph N/A   Clear
4:53 AM 45.0 °F 40.1 °F 23.0 °F 42% 30.28 in 10.0 mi NNE 9.2 mph - N/A   Clear
5:53 AM 44.1 °F 39.5 °F 21.9 °F 42% 30.31 in 10.0 mi NNE 8.1 mph - N/A   Clear
6:53 AM 44.1 °F 39.5 °F 21.0 °F 40% 30.34 in 10.0 mi NNE 8.1 mph - N/A   Clear
7:53 AM 46.0 °F 42.5 °F 23.0 °F 40% 30.35 in 10.0 mi Variable 6.9 mph - N/A   Clear
8:53 AM 46.9 °F - 21.9 °F 37% 30.37 in 10.0 mi ENE 12.7 mph - N/A   Clear
9:53 AM 48.9 °F - 19.0 °F 31% 30.40 in 10.0 mi Variable 5.8 mph - N/A   Clear
10:53 AM 52.0 °F - 18.0 °F 26% 30.39 in 10.0 mi ENE 9.2 mph - N/A   Clear
11:53 AM 54.0 °F - 18.0 °F 24% 30.37 in 10.0 mi North 6.9 mph - N/A   Clear
12:53 PM 55.0 °F - 17.1 °F 23% 30.34 in 10.0 mi North 9.2 mph - N/A   Clear
1:53 PM 59.0 °F - 19.9 °F 22% 30.31 in 10.0 mi North 6.9 mph - N/A   Clear
2:53 PM 60.1 °F - 19.9 °F 21% 30.28 in 10.0 mi North 8.1 mph - N/A   Clear
3:53 PM 59.0 °F - 19.9 °F 22% 30.27 in 10.0 mi North 4.6 mph - N/A   Clear
4:53 PM 59.0 °F - 21.9 °F 24% 30.25 in 10.0 mi Variable 3.5 mph - N/A   Clear
5:53 PM 57.9 °F - 23.0 °F 26% 30.25 in 10.0 mi East 3.5 mph - N/A   Clear
6:53 PM 57.0 °F - 24.1 °F 28% 30.25 in 10.0 mi Calm Calm - N/A   Clear
7:53 PM 55.9 °F - 25.0 °F 30% 30.25 in 10.0 mi East 3.5 mph - N/A   Clear
8:53 PM 55.0 °F - 24.1 °F 30% 30.25 in 10.0 mi ESE 5.8 mph - N/A   Clear
9:53 PM 55.9 °F - 28.9 °F 36% 30.25 in 10.0 mi East 5.8 mph - N/A   Clear
10:53 PM 55.9 °F - 27.0 °F 33% 30.24 in 10.0 mi East 8.1 mph - N/A   Clear
11:53 PM 55.0 °F - 28.0 °F 35% 30.22 in 10.0 mi East 8.1 mph - N/A   Clear